Home > Weather > Antananarivo > Past weeks

Flag for Madagascar Weather for the Past 2 Weeks in Antananarivo, Madagascar

Now
81 °F

Partly sunny.


Feels Like: 82 °F
Forecast: 62 / 78 °F
Wind: 13 mph from West

Location: Antananarivo / Ivato

Current Time: Feb 10, 2016 at 2:41:46 PM

Latest Report: Feb 10, 2016 at 2:00 PM


Visibility: N/A

Pressure: 29.89 "Hg (25.82 "Hg at 1287m altitude)

Humidity: 54%

Dew point: 63 °F

Location of AntananarivoLocation

Historic Weather in Antananarivo — Graph

°F

Antananarivo Temperature Yesterday

Maximum temperature yesterday: 82 °F (at 3:00 PM)
Minimum temperature yesterday: 66 °F (at 10:30 PM)
Average temperature yesterday: 71 °F

High & Low Weather Summary for the Past Weeks

 TemperatureHumidityPressure
High86 °F (Jan 26, 3:00 PM)94% (Jan 28, 3:00 AM)30.15 "Hg (Jan 28, 3:00 AM)
Low61 °F (Jan 27, 5:00 AM)35% (Jan 26, 4:00 PM)29.83 "Hg (Feb 9, 2:00 PM)
Average72 °F73%30.04 "Hg
* Reported Jan 26 1:00 PM — Feb 10 1:30 PM, Antananarivo, Weather by CustomWeather, © 2016

Note: Actual official high and low records may vary slightly from our data, if they occured in-between our weather recording intervals... More about our weather records

Advertising

Antananarivo Weather History for the Previous 24 Hours

 ConditionsComfort  
Time TempWeatherWind HumidityBarometerVisibility
1:30 PM
Wed, Feb 10
81 °FPartly sunny.12 mph54%29.89 "HgN/A
1:00 PM79 °FPartly sunny.10 mph54%29.89 "HgN/A
12:30 PM79 °FPartly sunny.12 mph58%29.92 "HgN/A
12:00 PM79 °FPartly sunny.10 mph54%29.92 "HgN/A
11:30 AM77 °FPartly sunny.16 mph57%29.92 "HgN/A
11:00 AM77 °FPartly sunny.13 mph61%29.95 "HgN/A
10:30 AM73 °FPartly sunny.12 mph65%29.95 "HgN/A
10:00 AM73 °FPartly sunny.15 mph65%29.95 "HgN/A
9:30 AM73 °FScattered clouds.17 mph69%29.95 "HgN/A
9:00 AM72 °FMild.16 mph69%29.95 "HgN/A
8:30 AM70 °FScattered clouds.15 mph78%29.95 "HgN/A
8:00 AM68 °FScattered clouds.12 mph83%29.95 "HgN/A
7:30 AM66 °FScattered clouds.9 mph88%29.95 "HgN/A
7:00 AM66 °FScattered clouds.9 mph88%29.95 "HgN/A
6:30 AM64 °FPartly sunny.8 mph94%29.95 "HgN/A
6:00 AM64 °FPartly sunny.9 mph88%29.92 "HgN/A
5:30 AM64 °FPassing clouds.9 mph88%29.95 "HgN/A
5:00 AM64 °FPassing clouds.7 mph94%29.92 "HgN/A
4:00 AM64 °FPassing clouds.7 mph88%29.92 "HgN/A
3:00 AM66 °FPassing clouds.6 mph88%29.92 "HgN/A
2:00 AM66 °FPassing clouds.8 mph88%29.92 "HgN/A
1:00 AM66 °FPassing clouds.5 mph94%29.92 "HgN/A
12:00 AM66 °FPassing clouds.7 mph94%29.95 "HgN/A
11:30 PM
Tue, Feb 9
68 °FPassing clouds.7 mph88%29.95 "HgN/A
11:00 PM68 °FLight rain. Passing clouds.10 mph88%29.95 "HgN/A
10:30 PM66 °FLight rain. Passing clouds.9 mph94%29.95 "HgN/A
10:00 PM68 °FLight rain. Partly cloudy.12 mph94%29.95 "HgN/A
9:30 PM68 °FLight rain. Partly cloudy.12 mph94%29.95 "HgN/A
9:00 PM68 °FLight rain. Partly cloudy.10 mph94%29.95 "HgN/A
8:30 PM68 °FLight rain. Partly cloudy.10 mph94%29.92 "Hg5 mi
8:00 PM68 °FLight rain. Partly cloudy.5 mph94%29.92 "Hg4 mi
7:30 PM68 °FLight rain. Partly cloudy.9 mph94%29.92 "Hg5 mi
7:00 PM68 °FLight rain. Partly cloudy.8 mph94%29.89 "Hg5 mi
6:30 PM70 °FLight rain. Partly cloudy.7 mph94%29.89 "Hg5 mi
6:00 PM70 °FLight rain. Broken clouds.9 mph88%29.89 "Hg5 mi
5:30 PM70 °FBroken clouds.8 mph94%29.89 "HgN/A
5:00 PM72 °FScattered showers. Partly sunny.3 mph88%29.86 "HgN/A
4:30 PM70 °FLight rain. Partly sunny.16 mph88%29.86 "Hg3 mi
4:00 PM75 °FScattered showers. Scattered clouds.20 mph74%29.83 "HgN/A
3:30 PM81 °FScattered showers. Scattered clouds.14 mph58%29.83 "HgN/A
3:00 PM82 °FScattered clouds.13 mph62%29.83 "HgN/A
2:30 PM81 °FScattered clouds.8 mph62%29.83 "HgN/A
2:00 PM81 °FWarm.10 mph62%29.83 "HgN/A
Weather by CustomWeather, © 2016

See weather overviewHow to use our weather pages